• Join FlightAware (Why Join?)
  • Login
  • US Flag 
07:16AM EST


 

Airport Tracker/Info


-or-


 

Live Flight TrackerFlight Track Log ✈ EJA396 ✈ 05-Oct-2013 ✈ KMIA - KORF

Flight Track Log - Related Links

Times and Time Zones

All times are in EDT time to prevent confusion due to time zone crossing. See the EJA396 flight status page for this flight to view local times or setup timezone preferences in your user account.

Time Position Orientation Groundspeed Altitude Reporting Facility
EDT Latitude Longitude Course Direction KTS MPH feet Rate Location/Type
08:42AM 25.8000 -80.2792 82° East 156 180 800  Level Miami Center
08:43AM 25.8078 -80.2147 82° East 270 311 3,800 3,519 Climbing Miami Center
08:43AM 25.8136 -80.1481 84° East 262 302 6,900 2,133 Climbing Miami Center
08:44AM 25.8375 -80.1047 59° Northeast 282 325 7,000 832 Climbing Miami Center
08:45AM 25.8767 -80.0319 59° Northeast 288 331 8,300 2,600 Climbing Miami Center
08:46AM 25.9181 -79.9592 58° Northeast 288 331 12,200 3,400 Climbing Miami Center
08:47AM 25.9594 -79.8769 61° Northeast 288 331 15,100 2,750 Climbing Miami Center
08:48AM 26.0069 -79.7928 58° Northeast 301 346 17,700 2,100 Climbing Miami Center
08:49AM 26.0611 -79.6969 58° Northeast 329 379 19,300 1,600 Climbing Miami Center
08:50AM 26.1194 -79.5964 57° Northeast 362 417 20,900 1,600 Climbing Miami Center
08:51AM 26.1861 -79.4961 53° Northeast 383 441 22,500 1,600 Climbing Miami Center
08:52AM 26.2547 -79.3933 53° Northeast 400 460 24,100 1,750 Climbing Miami Center
08:53AM 26.3625 -79.3261 29° Northeast 410 472 26,000 1,750 Climbing Miami Center
08:54AM 26.4594 -79.2772 24° Northeast 405 466 27,600 1,550 Climbing Miami Center
08:55AM 26.5667 -79.2258 23° Northeast 410 472 29,100 1,600 Climbing Miami Center
08:56AM 26.6742 -79.1700 25° Northeast 410 472 30,800 1,650 Climbing Miami Center
08:57AM 26.7836 -79.1186 23° Northeast 416 479 32,400 1,650 Climbing Miami Center
08:58AM 26.8867 -79.0647 25° Northeast 416 479 34,100 1,182 Climbing Miami Center
08:59AM 26.9900 -79.0106 25° Northeast 411 473 35,000 409 Climbing Miami Center
09:00AM 27.1372 -78.9339 25° Northeast 428 493 35,000  Level Miami Center
09:01AM 27.2403 -78.8819 24° Northeast 440 506 35,000  Level Miami Center
09:02AM 27.3517 -78.8256 24° Northeast 446 513 35,000 200 Level Miami Center
09:03AM 27.4817 -78.7903 14° North 433 498 35,400 900 Climbing Miami Center
09:04AM 27.5989 -78.7689 North 423 487 36,800 800 Climbing Miami Center
09:05AM 27.7036 -78.7519 North 423 487 37,000 100 Climbing Miami Center
09:06AM 27.8250 -78.7303 North 430 495 37,000  Level Miami Center
09:07AM 27.9525 -78.7067 North 425 489 37,000  Level Miami Center
09:08AM 28.0739 -78.6875 North 426 490 37,000  Level Miami Center
09:09AM 28.1869 -78.6656 10° North 426 490 37,000  Level Miami Center
09:10AM 28.3061 -78.6464 North 426 490 37,000  Level Miami Center
09:11AM 28.4233 -78.6222 10° North 426 490 37,000  Level Miami Center
09:12AM 28.5406 -78.6028 North 426 490 37,000  Level Miami Center
09:13AM 28.6597 -78.5833 North 426 490 37,000  Level Miami Center
09:14AM 28.7747 -78.5614 North 423 487 37,000  Level Miami Center
09:15AM 28.8856 -78.5419 North 430 495 37,000  Level Miami Center
09:16AM 29.0047 -78.5175 10° North 429 494 37,000  Level Miami Center
09:17AM 29.1261 -78.4981 North 434 499 37,000  Level Miami Center
09:18AM 29.2472 -78.4761 North 429 494 37,000  Level Miami Center
09:19AM 29.3644 -78.4514 10° North 429 494 37,000  Level Miami Center
09:22AM 29.6572 -78.4000 North 440 506 37,000  Level Jacksonville Center
09:23AM 29.7753 -78.3753 10° North 429 494 37,000  Level Jacksonville Center
09:24AM 29.8936 -78.3531 North 426 490 37,000  Level Jacksonville Center
09:25AM 30.0136 -78.3306 North 424 488 37,000  Level Jacksonville Center
09:26AM 30.1342 -78.3106 North 426 490 37,000  Level Jacksonville Center
09:27AM 30.2378 -78.2936 North 426 490 37,000  Level Jacksonville Center
09:28AM 30.3539 -78.2711 North 427 491 37,000  Level Jacksonville Center
09:29AM 30.4844 -78.2478 North 433 498 37,000  Level Jacksonville Center
09:30AM 30.6069 -78.2250 North 433 498 37,000  Level Jacksonville Center
09:31AM 30.7250 -78.2047 North 433 498 37,000  Level Jacksonville Center
09:32AM 30.8411 -78.1822 North 433 498 37,000  Level Jacksonville Center
09:33AM 30.9614 -78.1567 10° North 438 504 37,000  Level Jacksonville Center
09:34AM 31.0936 -78.1258 11° North 432 497 37,000  Level Jacksonville Center
09:35AM 31.2139 -78.1028 North 436 502 37,000  Level Jacksonville Center
09:36AM 31.3361 -78.0794 North 438 504 37,000  Level Jacksonville Center
09:37AM 31.4564 -78.0586 North 445 512 37,000  Level Jacksonville Center
09:38AM 31.5761 -78.0256 13° North 439 505 37,000  Level Jacksonville Center
09:39AM 31.6939 -77.9878 15° North 438 504 37,000  Level Jacksonville Center
09:40AM 31.8136 -77.9544 13° North 435 501 37,000  Level Jacksonville Center
09:41AM 31.9331 -77.9139 16° North 435 501 37,000  Level Jacksonville Center
09:42AM 32.0525 -77.8731 16° North 435 501 37,000  Level Jacksonville Center
09:43AM 32.1725 -77.8444 11° North 435 501 37,000  Level Jacksonville Center
09:44AM 32.2897 -77.8011 17° North 435 501 37,000  Level Jacksonville Center
09:45AM 32.4069 -77.7625 16° North 430 495 37,000  Level Jacksonville Center
09:46AM 32.5222 -77.7239 16° North 430 495 37,000  Level Jacksonville Center
09:48AM 32.7778 -77.6386 16° North 433 498 37,000  Level Washington Center
09:49AM 32.8950 -77.5994 16° North 433 498 37,000  Level Washington Center
09:50AM 33.0125 -77.5625 15° North 433 498 37,000  Level Washington Center
09:51AM 33.1278 -77.5206 17° North 433 498 37,000  Level Washington Center
09:52AM 33.2453 -77.4886 13° North 433 498 37,000  Level Washington Center
09:53AM 33.3644 -77.4664 North 433 498 37,000  Level Washington Center
09:54AM 33.4858 -77.4417 10° North 433 498 37,000  Level Washington Center
09:55AM 33.6050 -77.4194 North 433 498 37,000  Level Washington Center
09:56AM 33.7264 -77.3972 North 428 493 37,000  Level Washington Center
09:57AM 33.8456 -77.3722 10° North 428 493 37,000  Level Washington Center
09:58AM 33.9650 -77.3497 North 428 493 37,000  Level Washington Center
09:59AM 34.0736 -77.3294 North 434 499 37,000 -545 Level Washington Center
10:00AM 34.1867 -77.3092 North 423 487 35,900 -1,377 Descending Washington Center
10:01AM 34.2997 -77.2864 North 411 473 34,200 -1,765 Descending Washington Center
10:02AM 34.4208 -77.2639 North 417 480 32,400 -1,815 Descending Washington Center
10:03AM 34.5403 -77.2383 10° North 429 494 30,600 -1,736 Descending Washington Center
10:04AM 34.6617 -77.2156 North 429 494 28,900 -1,800 Descending Washington Center
10:05AM 34.7808 -77.1953 North 429 494 27,000 -1,934 Descending Washington Center
10:06AM 34.8981 -77.1672 11° North 424 488 25,000 -1,966 Descending Washington Center
10:07AM 35.0067 -77.1439 10° North 419 482 23,100 -1,916 Descending Washington Center
10:08AM 35.1178 -77.1106 14° North 407 468 21,200 -1,131 Descending Washington Center
10:09AM 35.2225 -77.0769 15° North 399 459 20,800 -1,041 Descending Washington Center
10:10AM 35.3189 -77.0481 14° North 369 425 19,100 -1,729 Descending Washington Center
10:11AM 35.4172 -77.0194 13° North 358 412 17,400 -1,815 Descending Washington Center
10:12AM 35.5178 -76.9881 14° North 358 412 15,500 -1,820 Descending Washington Center
10:13AM 35.6183 -76.9564 14° North 363 418 13,700 -1,721 Descending Washington Center
10:14AM 35.7231 -76.9200 16° North 363 418 12,000 -1,373 Descending Washington Center
10:15AM 35.8194 -76.8933 13° North 352 405 11,000 -508 Descending Washington Center
10:16AM 35.9136 -76.8642 14° North 347 399 11,000  Level Washington Center
10:17AM 35.9847 -76.8447 12° North 342 394 11,000  Level Washington Center
10:17AM 36.0056 -76.8347 21° North 342 394 11,000  Level Washington Center
10:18AM 36.0997 -76.8053 14° North 337 388 11,000 79 Level Washington Center
10:18AM 36.1269 -76.8031 North 352 405 11,100  Climbing Washington Center
10:19AM 36.1814 -76.7808 18° North 337 388 11,000  Descending Washington Center
10:19AM 36.2294 -76.7714 North 354 407 11,100  Climbing Washington Center
10:20AM 36.2756 -76.7514 19° North 337 388 11,000  Descending Washington Center
10:20AM 36.3194 -76.7417 10° North 354 407 11,100 -103 Climbing Washington Center
10:21AM 36.3719 -76.7192 19° North 337 388 10,900 -857 Descending Washington Center
10:21AM 36.4078 -76.6758 44° Northeast 295 339 10,100 -1,180 Descending Washington Center
10:22AM 36.4228 -76.6425 61° Northeast 303 349 9,700 -857 Descending Washington Center
10:22AM 36.4419 -76.5861 67° East 279 321 9,200 -1,000 Descending Washington Center
10:23AM 36.4567 -76.5528 61° Northeast 277 319 8,700 -1,759 Descending Washington Center
10:23AM 36.4906 -76.5142 42° Northeast 280 322 7,500 -1,966 Descending Washington Center
10:24AM 36.5117 -76.4861 47° Northeast 277 319 6,800 -1,781 Descending Washington Center
10:24AM 36.5514 -76.4503 36° Northeast 272 313 5,600 -1,574 Descending Washington Center
10:25AM 36.5703 -76.4300 41° Northeast 267 307 5,200 -667 Descending Washington Center
10:25AM 36.6039 -76.3967 39° Northeast 262 302 5,000 -197 Descending Washington Center
10:26AM 36.6250 -76.3736 41° Northeast 262 302 5,000  Level Washington Center
10:26AM 36.6564 -76.3428 38° Northeast 248 285 5,000 71 Level Washington Center
10:27AM 36.7089 -76.2889 39° Northeast 271 312 5,100 -690 Climbing Washington Center
10:28AM 36.7675 -76.2453 31° Northeast 255 293 3,700 -1,115 Descending Washington Center
10:29AM 36.8219 -76.2069 29° Northeast 238 274 3,000 -582 Descending Washington Center
10:31AM 36.8786 -76.1553 36° Northeast 144 166 2,400 -592 Descending Washington Center
10:32AM 36.9122 -76.1425 17° North 118 136 1,600 -821 Descending Washington Center
10:32AM 36.9203 -76.1739 288° West 114 131 800 -889 Descending Washington Center